311  
ASUS44 KCRP 220110  
HRRCRP  
 
SOUTH TEXAS REGIONAL WEATHER ROUNDUP  
NATIONAL WEATHER SERVICE CORPUS CHRISTI TX  
700 PM CST FRI FEB 21 2020  
 
TXZ229>244-220200-   
..CORPUS CHRISTI AREA OBSERVATIONS
 
 
 
CITY SKY/WX TMP DP RH WIND PRES REMARKS  
CORPUS CHRISTI PTCLDY 52 37 56 SE8 30.51R  
NAS CORPUS CHR PTCLDY 52 40 63 E10 30.50S  
ROCKPORT CLEAR 55 34 45 NE10 30.51R  
KINGSVILLE NAS CLEAR 54 36 50 E8 30.51R  
ALICE CLEAR 54 35 48 NE5 30.49S  

 
   
..VICTORIA AREA OBSERVATIONS
 
 
 
CITY SKY/WX TMP DP RH WIND PRES REMARKS  
PORT LAVACA NOT AVBL  
VICTORIA CLEAR 49 36 61 E7 30.51R  
BEEVILLE FAIR 52 38 58 CALM 30.50S  
PLEASANTON CLEAR 49 32 51 E5 30.50F  
SAN ANTONIO PTCLDY 50 33 52 E9 30.49R  

 
   
..LAREDO AREA OBSERVATIONS
 
 
 
CITY SKY/WX TMP DP RH WIND PRES REMARKS  
LAREDO CLEAR 55 36 48 E7 30.48S  
COTULLA MOCLDY 55 35 47 SE6 30.48F  
DEL RIO CLOUDY 55 29 36 SE7 30.44F  
MCALLEN CLEAR 54 36 50 E5 30.52R  
HEBBRONVILLE CLEAR 55 33 43 E3 30.49S  

 
   
..OTHER TEXAS OBSERVATIONS
 
 
 
CITY SKY/WX TMP DP RH WIND PRES REMARKS  
BROWNSVILLE FAIR 51 40 65 N7 30.51R  
HOUSTON PTCLDY 50 30 46 NE8 30.50S  
COL. STATION CLEAR 48 33 56 N7 30.51R  
AUSTIN MOCLDY 47 34 60 E6 30.50S  
TEMPLE CLEAR 44 32 62 NE6 30.52S  
WACO CLEAR 45 31 58 E6 30.52S  
FORT WORTH PTCLDY 43 15 32 E5 30.48F  
WICHITA FALLS CLEAR 40 26 57 SE9 30.44F  
LUBBOCK MOCLDY 46 26 45 S13 30.32F  
EL PASO CLOUDY 50 33 52 N6 30.30S  

 
   
..MARINE OBSERVATIONS
 
 
 
STATION/POSITION TIME SKY/WX TEMP WIND PRES VSBY WAVE SWELL  
AIR SEA DIR/SP/G HT/PER HT/PER  
(UTC) (F) (DEG/KT/KT) (MB) (MI) (FT/S) (FT/S)  
PORT ARANSAS 0100 54 60 60/ 8/ 10 1032.8S  
BUOY 90 E PORT A NOT AVBL  
BUOY 45 SE BAFFI 0050 56 71 40/ 14/ 19 1032.9R 8/ 9 5/ 9  
BUOY 200 E PT IS 0050 61 72 30/ 19/ 27 1029.7R 10/ 9 7/ 9  
BUOY 15 E GALVES 0050 1033.3F 3/ 5 2/ 6  

 
 
 
CLICK HERE TO GO TO PREVIOUS BULLETINS.

The Nexlab TX Page Main Text Page